Regional Weather Roundup
Issued by NWS

Home | Current Version | Previous Version | Text Only | Print | Product List | Glossary Off
Versions: 1 2 3 4 5 6 7 8 9 10 11 12 13 14 15 16 17 18 19 20 21 22 23 24 25 26 27 28 29 30 31 32 33 34 35 36 37 38 39 40 41 42 43 44 45 46 47 48 49 50

000
ASUS43 KIND 020609
RWRIN

WEATHER ROUNDUP FOR INDIANA
NATIONAL WEATHER SERVICE INDIANAPOLIS IN
200 AM EDT THU OCT 02 2014

NOTE: "FAIR" INDICATES FEW OR NO CLOUDS BELOW 12,000 FEET WITH NO
SIGNIFICANT WEATHER AND/OR OBSTRUCTIONS TO VISIBILITY.

* - STATION DOES NOT REPORT WEATHER SUCH AS PRECIPITATION OR FOG.

+ - STATION NOT QUALITY CONTROLLED BY THE NATIONAL WEATHER SERVICE.
    USE DATA WITH CAUTION...ESPECIALLY DEWPOINT AND RELATIVE
    HUMIDITY OBSERVATIONS.

INZ001>003-010>013-019-020-020700-
NORTHWEST INDIANA

CITY           SKY/WX    TMP DP  RH WIND       PRES   REMARKS
GARY /AIRPORT/ CLOUDY    65  52  62 SE9       29.90S
KNOX *+        CLOUDY    61  49  66 SE8       29.93S
LA PORTE +     CLOUDY    60  53  76 SE5       29.94F
6HR MIN TEMP:  57; 6HR MAX TEMP:  61;

MICHIGAN CITY+ CLOUDY    61  46  59 SE8       29.93S
MONTICELLO +   CLOUDY    60  54  79 SE3       29.93S
RENSSELAER +   CLOUDY    63  55  77 SE7       29.92S
VALPARAISO     CLOUDY    59  51  75 E3        29.94R
6HR MIN TEMP:  56; 6HR MAX TEMP:  59;


$$

LMZ046-743>745-020700-
SOUTHERN LAKE MICHIGAN

STATION/POSITION TIME  TEMP WIND        PRES
                       AIR  DIR/SP/G
                 (UTC) (F)  (DEG/KT/KT) (MB)
MICHIGAN CITY    0600   65  120/ 14/ 19   N/A

$$

INZ004-005-014>016-021>024-020700-
NORTH CENTRAL INDIANA

CITY           SKY/WX    TMP DP  RH WIND       PRES   REMARKS
LOGANSPORT +   MOCLDY    54  50  87 SE6       29.96S
PERU/GRISSOM   PTCLDY    57  56  96 SE6       29.96F
6HR MIN TEMP:  56; 6HR MAX TEMP:  62;

ROCHESTER +    MOCLDY    61  52  72 SE7       29.96S
SOUTH BEND     NOT AVBL
WARSAW +       MOCLDY    55  50  82 E3        29.97F

$$

INZ006>009-017-018-025>027-020700-
NORTHEAST INDIANA

CITY           SKY/WX    TMP DP  RH WIND       PRES   REMARKS
ANGOLA *+      PTCLDY    54  52  94 SE7       30.00F
AUBURN +       CLEAR     54  46  76 E5        30.01F
FORT WAYNE     PTCLDY    52  47  83 E5        30.00F
6HR MIN TEMP:  50; 6HR MAX TEMP:  59;

HUNTINGTON +   CLEAR     52  49  91 E3        29.98F
6HR MIN TEMP:  50; 6HR MAX TEMP:  60;


$$

INZ028-029-035-036-043>045-051>053-020700-
WEST CENTRAL INDIANA

CITY           SKY/WX    TMP DP  RH WIND       PRES   REMARKS
GREENCASTLE +  PTCLDY    59  57  94 SE3       29.95F
LAFAYETTE      CLOUDY    64  56  75 SE9       29.93S
6HR MIN TEMP:  61; 6HR MAX TEMP:  67;

TERRE HAUTE    MOCLDY    66  59  78 SE6       29.92F
6HR MIN TEMP:  66; 6HR MAX TEMP:  72;


$$

INZ030>032-037>040-046>048-054>057-064-065-020700-
CENTRAL INDIANA

CITY           SKY/WX    TMP DP  RH WIND       PRES   REMARKS
CP ATTERBURY + CLEAR     57  54  88 CALM      29.98S
FRANKFORT +    PTCLDY    62  55  80 SE6       29.96F
INDIANAPOLIS   PTCLDY    60  53  77 SE8       29.96R
6HR MIN TEMP:  60; 6HR MAX TEMP:  71;

-EAGLE CREEK   PTCLDY    62  54  74 SE6       29.97R
6HR MIN TEMP:  62; 6HR MAX TEMP:  70;

KOKOMO *+      PTCLDY    55  50  82 SE8       29.97F
MARION +       CLEAR     55  49  80 SE7       29.98F
MT COMFORT *+  CLEAR     59  48  67 SE6       29.98F
SHELBYVILLE    CLEAR     58  52  80 E6        29.97F
6HR MIN TEMP:  58; 6HR MAX TEMP:  69;

ZIONSVILLE +   PTCLDY    59  52  77 SE5       29.98S
6HR MIN TEMP:  59; 6HR MAX TEMP:  67;


$$

INZ033-034-041-042-049-050-058-059-020700-
EAST CENTRAL INDIANA

CITY           SKY/WX    TMP DP  RH WIND       PRES   REMARKS
MUNCIE         CLEAR     55  50  83 SE3       29.99S
6HR MIN TEMP:  54; 6HR MAX TEMP:  63;


$$

INZ060-061-067>069-081>083-085>088-020700-
SOUTHWEST INDIANA

CITY           SKY/WX    TMP DP  RH WIND       PRES   REMARKS
EVANSVILLE     PTCLDY    66  57  72 CALM      29.94S
6HR MIN TEMP:  65; 6HR MAX TEMP:  78;

WASHINGTON +   PTCLDY    65  58  78 S6        29.93S
6HR MIN TEMP:  64; 6HR MAX TEMP:  68;


$$

INZ062-063-066-070>080-084-089>092-020700-
SOUTH CENTRAL AND SOUTHEAST INDIANA

CITY           SKY/WX    TMP DP  RH WIND       PRES   REMARKS
BLOOMINGTON    PTCLDY    62  58  86 CALM      29.96R
6HR MIN TEMP:  59; 6HR MAX TEMP:  68;

NORTH VERNON + CLEAR     63  57  82 CALM      29.98F

$$



USA.gov is the U.S. government's official web portal to all federal, state and local government web resources and services.